Stations météo

réclame
Mon MeteoGroup
Angermünde, Allemagne (10291): Température de l'air & dewpoint: 17.05.2018 22:00:00 - 23.05.2018 22:00:00 (CEST)Angermünde, Allemagne (10291): Température de l'air 5cm & Température de l'air -5cm: 17.05.2018 22:00:00 - 23.05.2018 22:00:00 (CEST)Angermünde, Allemagne (10291): Température de l'air -20cm & Température de l'air -100cm: 17.05.2018 22:00:00 - 23.05.2018 22:00:00 (CEST)Angermünde, Allemagne (10291): Vitesse du vent & gusts: 17.05.2018 22:00:00 - 23.05.2018 22:00:00 (CEST)Angermünde, Allemagne (10291): Direction du vent: 17.05.2018 22:00:00 - 23.05.2018 22:00:00 (CEST)Angermünde, Allemagne (10291): reduced air pressure: 17.05.2018 22:00:00 - 23.05.2018 22:00:00 (CEST)Angermünde, Allemagne (10291): visibility: 17.05.2018 22:00:00 - 23.05.2018 22:00:00 (CEST)Angermünde, Allemagne (10291): Ensoleillement: 17.05.2018 22:00:00 - 23.05.2018 22:00:00 (CEST)Angermünde, Allemagne (10291): Quantités de précipitations: 17.05.2018 22:00:00 - 23.05.2018 22:00:00 (CEST)
Date & Time tt [°C] td [°C] tt 5cm [°C] tt -5cm [°C] tt -20cm [°C] tt -100cm [°C] ff [km/h] ff [knt] fx [km/h] fx [knt] dd ppp [hPa] vv [km] sd [min] rr [mm]
23.05.2018 22:00:00 15,9 9,7 13,9 21,0 21,6 14,9 10 6 24 13 NNE 1024,0 10 0 0,0
23.05.2018 21:00:00 17,8 10,2 16,7 22,6 22,0 14,9 16 8 24 13 N 1023,4 9 8 0,0
23.05.2018 20:00:00 19,5 10,7 19,8 24,5 22,1 14,9 18 10 32 17 N 1022,8 10 50 0,0
23.05.2018 19:00:00 21,8 9,7 23,9 26,3 22,1 14,9 19 10 29 16 NNE 1022,3 13 60 0,0
23.05.2018 18:00:00 24,3 6,3 28,7 27,7 21,9 14,9 16 9 28 15 ENE 1022,3 12 60 0,0
23.05.2018 17:00:00 24,4 6,9 28,8 27,9 21,5 14,8 16 9 26 14 NE 1022,3 12 58 0,0
23.05.2018 16:00:00 23,7 6,6 27,5 28,3 21,0 14,8 14 7 26 14 NE 1022,6 12 60 0,0
23.05.2018 15:00:00 24,7 7,5 32,2 28,6 20,4 14,8 12 6 27 15 NE 1022,6 10 60 0,0
23.05.2018 14:00:00 22,7 6,2 31,2 27,6 19,6 14,8 11 6 30 16 ENE 1023,0 10 60 0,0
23.05.2018 13:00:00 22,6 8,3 29,0 25,7 19,0 14,8 12 6 26 14 NE 1022,9 9 60 0,0
23.05.2018 12:00:00 21,4 8,4 27,3 24,0 18,3 14,8 14 7 23 12 NE 1022,6 11 60 0,0
23.05.2018 11:00:00 20,4 8,6 26,3 22,7 17,7 14,8 13 7 24 13 NE 1022,4 10 60 0,0
23.05.2018 10:00:00 19,6 9,7 25,5 20,4 17,3 14,8 14 8 23 13 NE 1022,1 11 60 0,0
23.05.2018 09:00:00 17,3 10,2 20,9 17,8 17,1 14,7 11 6 18 10 NE 1022,1 9 60 0,0
23.05.2018 08:00:00 14,3 9,2 16,9 15,3 17,2 14,7 8 4 15 8 NNE 1021,8 9 60 0,0
23.05.2018 07:00:00 11,4 8,5 9,9 14,0 17,5 14,7 6 4 11 6 NNE 1021,3 9 60 0,0
23.05.2018 06:00:00 9,1 7,5 6,8 14,1 17,8 14,7 5 3 9 5 N 1020,5 8 10 0,0
23.05.2018 05:00:00 9,4 7,5 6,5 14,5 18,2 14,7 6 3 13 7 NNW 1020,1 9 0 0,0
23.05.2018 04:00:00 9,8 8,1 7,5 15,0 18,6 14,7 7 4 11 6 N 1019,7 8 0 0,0
23.05.2018 03:00:00 10,3 8,0 8,0 15,7 19,1 14,7 8 4 13 7 NNW 1019,3 8 0 0,0
23.05.2018 02:00:00 10,8 8,0 8,6 16,4 19,5 14,7 6 3 10 6 NNW 1019,0 8 0 0,0
23.05.2018 01:00:00 11,7 8,1 9,0 17,3 20,0 14,7 7 4 10 6 NNW 1018,8 9 0 0,0
23.05.2018 00:00:00 12,9 8,1 9,4 18,2 20,5 14,6 6 4 11 6 N 1018,4 9 0 0,0
22.05.2018 23:00:00 14,2 7,6 10,3 19,4 21,0 14,6 5 3 19 10 NNE 1018,1 11 0 0,0
22.05.2018 22:00:00 15,2 8,0 13,2 20,9 21,5 14,6 10 6 22 12 NNE 1017,4 11 0 0,0
22.05.2018 21:00:00 18,2 7,9 16,3 22,7 21,8 14,6 12 7 22 12 NNE 1016,8 12 28 0,0
22.05.2018 20:00:00 20,8 6,8 22,0 24,8 21,9 14,6 8 5 14 8 NE 1016,2 12 60 0,0
22.05.2018 19:00:00 22,7 6,9 25,2 26,5 21,9 14,6 8 4 13 7 ENE 1015,7 14 60 0,0
22.05.2018 18:00:00 23,4 5,5 27,8 27,7 21,6 14,6 9 5 17 9 NE 1015,7 15 60 0,0
22.05.2018 17:00:00 23,0 5,9 27,6 28,3 21,3 14,6 8 4 21 11 E 1015,8 15 60 0,0
22.05.2018 16:00:00 23,2 5,4 28,8 28,3 20,7 14,6 9 5 22 12 ESE 1015,8 14 49 0,0
22.05.2018 15:00:00 23,1 5,6 30,4 28,7 20,0 14,6 12 6 23 13 E 1016,0 13 60 0,0
22.05.2018 14:00:00 22,4 5,2 30,0 27,6 19,2 14,6 13 7 30 16 E 1016,2 10 60 0,0
22.05.2018 13:00:00 23,1 6,6 28,8 25,7 18,5 14,6 8 5 22 12 E 1016,2 11 44 0,0
22.05.2018 12:00:00 22,7 6,0 30,2 24,8 17,7 14,6 11 6 26 14 ENE 1016,6 12 60 0,0
22.05.2018 11:00:00 21,0 5,2 26,1 22,6 17,0 14,6 10 5 17 9 E 1016,9 13 60 0,0
22.05.2018 10:00:00 19,8 6,7 24,6 19,9 16,5 14,5 7 4 12 6 ESE 1017,0 9 60 0,0
22.05.2018 09:00:00 18,0 8,8 21,7 17,1 16,3 14,5 8 4 12 7 E 1017,3 4,6 60 0,0
22.05.2018 08:00:00 14,7 7,7 17,7 14,4 16,4 14,5 4 2 11 6 E 1017,2 10 60 0,0
22.05.2018 07:00:00 10,6 7,7 9,2 13,0 16,7 14,5 5 3 12 7 NNE 1017,4 11 42 0,0
22.05.2018 06:00:00 8,0 6,1 5,4 13,0 17,0 14,5 6 3 7 4 NW 1017,4 11 0 0,0
22.05.2018 05:00:00 8,2 6,2 4,7 13,5 17,4 14,5 6 4 9 5 NNE 1017,4 11 0 0,0
22.05.2018 04:00:00 8,4 6,5 5,5 14,2 17,9 14,5 8 4 11 6 N 1017,6 11 0 0,0
22.05.2018 03:00:00 9,2 6,7 5,7 14,8 18,3 14,5 4 2 8 5 NNE 1017,8 11 0 0,0
22.05.2018 02:00:00 11,3 6,9 6,6 15,6 18,7 14,5 6 3 12 6 E 1017,9 12 0 0,0
22.05.2018 01:00:00 12,6 6,9 7,8 16,4 19,2 14,5 7 4 9 5 E 1018,2 13 0 0,0
22.05.2018 00:00:00 13,1 7,2 8,2 17,4 19,7 14,5 7 4 10 5 ESE 1018,5 13 0 0,0
21.05.2018 23:00:00 13,7 7,4 9,6 18,5 20,2 14,5 7 4 15 8 ESE 1018,7 14 0 0,0
21.05.2018 22:00:00 15,4 7,2 12,1 20,0 20,6 14,5 10 6 14 8 E 1018,7 14 0 0,0
21.05.2018 21:00:00 17,6 7,0 15,0 21,9 20,9 14,5 10 5 19 10 E 1018,6 14 26 0,0
21.05.2018 20:00:00 20,7 6,0 20,8 23,7 21,1 14,5 16 9 29 16 E 1018,5 16 60 0,0
21.05.2018 19:00:00 22,1 5,6 23,8 25,3 21,1 14,5 18 10 33 18 E 1018,7 12 60 0,0
21.05.2018 18:00:00 22,8 5,5 25,8 26,6 20,9 14,5 18 10 34 19 E 1019,1 11 60 0,0
21.05.2018 17:00:00 23,2 4,7 27,6 27,3 20,5 14,5 16 9 35 19 ENE 1019,7 14 58 0,0
21.05.2018 16:00:00 22,9 5,5 26,4 27,7 20,0 14,4 23 12 39 21 E 1020,4 13 56 0,0
21.05.2018 15:00:00 23,6 7,4 29,3 27,8 19,3 14,4 21 11 39 21 E 1021,1 11 60 0,0
21.05.2018 14:00:00 22,6 7,2 29,6 26,8 18,5 14,4 21 11 35 19 E 1021,8 11 60 0,0
21.05.2018 13:00:00 21,8 7,0 28,2 25,3 17,7 14,4 21 12 37 20 SE 1022,6 10 58 0,0
21.05.2018 12:00:00 21,0 8,7 26,1 23,9 16,9 14,4 15 8 31 17 ENE 1023,3 17 58 0,0
21.05.2018 11:00:00 19,7 7,9 24,7 21,5 16,2 14,4 11 6 22 12 ENE 1024,0 14 60 0,0
21.05.2018 10:00:00 18,2 8,6 23,3 18,8 15,7 14,4 11 6 19 10 ENE 1024,6 13 60 0,0
21.05.2018 09:00:00 16,0 7,9 19,8 16,0 15,5 14,4 8 4 14 8 ENE 1025,1 5 60 0,0
21.05.2018 08:00:00 13,2 8,0 15,9 13,4 15,5 14,4 7 4 11 6 ENE 1025,3 12 60 0,0
21.05.2018 07:00:00 9,3 7,4 7,5 11,9 15,8 14,4 3 1 7 4 N 1025,5 11 60 0,0
21.05.2018 06:00:00 6,5 5,5 5,1 11,9 16,2 14,4 6 3 8 4 N 1025,6 13 6 0,0
21.05.2018 05:00:00 6,1 5,5 4,2 12,2 16,6 14,4 4 2 8 4 WNW 1025,5 11 0 0,0
21.05.2018 04:00:00 7,1 6,2 3,3 12,7 17,0 14,4 5 3 9 5 NNE 1025,7 13 0 0,0
21.05.2018 03:00:00 8,0 6,4 4,5 13,4 17,5 14,4 7 4 13 7 NNE 1025,6 14 0 0,0
21.05.2018 02:00:00 7,9 6,0 4,3 14,2 18,0 14,4 7 4 8 5 NNW 1025,7 15 0 0,0
21.05.2018 01:00:00 9,3 6,2 5,3 15,1 18,5 14,4 5 3 9 5 N 1025,8 16 0 0,0
21.05.2018 00:00:00 10,2 6,8 6,5 16,2 19,0 14,4 5 3 18 10 NNE 1025,9 17 0 0,0
20.05.2018 23:00:00 11,4 7,0 9,0 17,4 19,6 14,4 9 5 19 10 NE 1025,7 17 0 0,0
20.05.2018 22:00:00 13,5 7,1 10,7 18,8 20,1 14,4 13 7 21 11 NNE 1025,4 19 0 0,0
20.05.2018 21:00:00 15,4 5,7 12,3 20,8 20,4 14,4 9 5 14 8 NE 1025,0 17 27 0,0
20.05.2018 20:00:00 18,4 4,5 19,6 23,0 20,6 14,4 9 5 19 10 ENE 1024,8 24 60 0,0
20.05.2018 19:00:00 20,2 2,3 22,2 24,9 20,6 14,4 16 8 27 14 E 1025,0 19 60 0,0
20.05.2018 18:00:00 20,8 3,2 24,8 26,2 20,3 14,4 14 8 27 14 ENE 1025,2 20 60 0,0
20.05.2018 17:00:00 20,9 2,4 26,0 27,1 19,9 14,4 14 8 23 13 ENE 1025,6 15 60 0,0
20.05.2018 16:00:00 20,9 1,5 26,8 27,3 19,3 14,4 13 7 24 13 E 1026,0 11 60 0,0
20.05.2018 15:00:00 20,3 1,6 27,3 27,1 18,5 14,4 15 8 26 14 E 1026,4 14 60 0,0
20.05.2018 14:00:00 19,4 1,3 26,1 26,2 17,7 14,4 11 6 22 12 E 1026,7 18 60 0,0
20.05.2018 13:00:00 19,6 1,5 27,0 24,8 16,8 14,4 10 5 26 14 E 1027,0 18 60 0,0
20.05.2018 12:00:00 19,1 1,3 25,2 22,8 16,0 14,4 11 6 25 14 E 1027,3 17 60 0,0
20.05.2018 11:00:00 17,8 0,7 23,4 20,3 15,3 14,4 15 8 24 13 ENE 1027,3 14 60 0,0
20.05.2018 10:00:00 16,8 4,2 21,1 17,5 14,8 14,4 12 7 19 10 ENE 1027,5 11 60 0,0
20.05.2018 09:00:00 13,4 6,3 17,8 14,5 14,6 14,4 8 4 14 8 NNE 1027,5 11 60 0,0
20.05.2018 08:00:00 10,1 6,1 12,8 11,8 14,7 14,4 6 4 11 6 NNE 1027,2 13 60 0,0
20.05.2018 07:00:00 6,8 5,0 5,1 10,4 15,0 14,4 5 3 9 5 N 1026,8 12 60 0,0
20.05.2018 06:00:00 4,9 3,7 2,4 10,4 15,4 14,4 5 3 10 5 NNE 1026,5 - 6 0,0
20.05.2018 05:00:00 4,6 3,0 2,4 10,8 15,8 14,4 7 4 11 6 N 1026,1 16 0 0,0
20.05.2018 04:00:00 5,2 2,8 2,8 11,4 16,3 14,4 8 4 12 7 N 1025,9 16 0 0,0
20.05.2018 03:00:00 5,7 2,5 2,9 12,0 16,8 14,4 9 5 13 7 NNW 1025,8 17 0 0,0
20.05.2018 02:00:00 6,3 2,7 3,9 12,9 17,4 14,4 8 4 11 6 N 1025,8 17 0 0,0
20.05.2018 01:00:00 6,7 2,5 3,1 13,9 17,9 14,4 5 3 13 7 N 1025,7 18 0 0,0
20.05.2018 00:00:00 9,1 2,6 4,8 15,2 18,5 14,4 8 4 18 10 NNE 1025,3 19 0 0,0
19.05.2018 23:00:00 10,4 4,2 7,1 16,5 19,0 14,4 10 5 14 8 NNE 1024,7 20 0 0,0
19.05.2018 22:00:00 12,2 4,5 9,3 18,1 19,5 14,4 9 5 18 10 NNE 1024,1 20 0 0,0
19.05.2018 21:00:00 13,7 5,6 11,8 20,0 19,9 14,4 11 6 21 11 NE 1023,4 19 25 0,0
19.05.2018 20:00:00 17,2 4,8 17,9 22,2 20,1 14,4 15 8 28 15 NE 1022,7 22 60 0,0
19.05.2018 19:00:00 19,0 5,1 21,7 24,2 20,0 14,4 18 10 28 15 NE 1022,5 18 60 0,0
19.05.2018 18:00:00 20,4 5,5 24,4 25,7 19,8 14,4 16 9 31 17 NE 1022,4 18 60 0,0
19.05.2018 17:00:00 21,2 6,0 26,1 26,7 19,3 14,4 15 8 26 14 NE 1022,4 17 60 0,0
19.05.2018 16:00:00 21,4 6,8 27,6 26,9 18,6 14,4 9 5 34 18 NE 1022,5 23 60 0,0
19.05.2018 15:00:00 20,6 5,2 27,4 26,4 17,8 14,5 14 8 27 15 E 1022,7 18 60 0,0
19.05.2018 14:00:00 19,9 5,2 26,4 25,3 17,0 14,5 14 8 34 19 ENE 1023,0 24 60 0,0
19.05.2018 13:00:00 18,8 3,9 25,7 23,9 16,1 14,5 13 7 31 17 E 1023,2 16 60 0,0
19.05.2018 12:00:00 18,8 3,0 24,2 21,8 15,2 14,5 16 9 27 15 E 1023,3 24 60 0,0
19.05.2018 11:00:00 17,1 3,3 22,3 19,0 14,5 14,5 10 5 24 13 ENE 1023,4 23 60 0,0
19.05.2018 10:00:00 15,1 3,9 19,8 16,0 14,1 14,5 11 6 18 10 ENE 1023,4 23 60 0,0
19.05.2018 09:00:00 14,1 4,3 16,8 13,7 13,9 14,5 11 6 17 9 ENE 1023,0 18 58 0,0
19.05.2018 08:00:00 9,3 7,1 9,8 11,0 14,0 14,5 4 2 9 5 NE 1022,7 16 14 0,0
19.05.2018 07:00:00 7,8 6,9 6,8 10,3 14,2 14,5 4 2 8 4 NE 1022,2 16 60 0,0
19.05.2018 06:00:00 5,9 5,5 4,7 10,2 14,5 14,5 5 3 7 4 NW 1021,9 13 5 0,0
19.05.2018 05:00:00 5,6 5,2 3,9 10,4 14,9 14,5 6 4 8 5 NW 1021,7 13 0 0,0
19.05.2018 04:00:00 6,7 5,9 3,5 11,0 15,2 14,5 7 4 9 5 N 1021,5 15 0 0,0
19.05.2018 03:00:00 6,8 6,2 4,8 11,5 15,6 14,5 4 2 7 4 WNW 1021,2 13 0 0,0
19.05.2018 02:00:00 8,0 6,1 4,8 12,2 15,9 14,5 5 3 8 4 N 1021,1 18 0 0,0
19.05.2018 01:00:00 9,3 6,7 5,4 13,0 16,3 14,5 5 3 7 4 N 1021,1 19 0 0,0
19.05.2018 00:00:00 10,2 6,8 6,3 13,9 16,5 14,5 4 2 9 5 N 1021,0 21 0 0,0
18.05.2018 23:00:00 11,9 7,9 9,5 15,1 16,8 14,5 4 2 11 6 NNW 1020,6 19 0 0,0
18.05.2018 22:00:00 13,5 8,0 12,3 16,1 16,9 14,5 8 5 19 11 NNE 1020,3 24 0 0,0
18.05.2018 21:00:00 13,9 11,7 13,8 16,5 17,0 14,5 8 5 16 9 W 1019,8 11 0 0,0
18.05.2018 20:00:00 15,0 11,8 15,2 17,2 17,1 14,5 11 6 15 8 W 1019,4 13 0 0,0
18.05.2018 19:00:00 15,4 12,1 15,9 17,7 17,0 14,5 8 4 13 7 WNW 1019,2 11 0 0,0
18.05.2018 18:00:00 15,5 11,5 16,6 18,3 16,9 14,5 10 5 13 7 WNW 1019,1 11 0 0,0
18.05.2018 17:00:00 15,6 11,7 17,4 18,2 16,7 14,4 8 5 18 10 W 1019,0 12 0 0,0
18.05.2018 16:00:00 14,8 11,5 17,1 17,7 16,6 14,4 11 6 18 10 W 1019,2 10 0 0,0
18.05.2018 15:00:00 14,2 11,8 15,8 17,2 16,4 14,4 14 7 19 10 WNW 1019,3 8 0 0,0
18.05.2018 14:00:00 13,9 11,7 15,4 16,9 16,3 14,4 11 6 20 11 NW 1019,2 7 0 0,0
18.05.2018 13:00:00 13,5 11,4 15,3 16,4 16,2 14,4 13 7 21 11 WNW 1019,2 6 0 0,0
18.05.2018 12:00:00 13,1 11,1 14,9 15,7 16,1 14,4 13 7 22 12 WNW 1018,9 6 0 0,0
18.05.2018 11:00:00 12,3 10,9 13,3 15,0 16,2 14,4 11 6 17 9 WNW 1018,2 5 0 0,0
18.05.2018 10:00:00 11,7 10,6 12,5 14,8 16,2 14,4 11 6 21 11 WNW 1018,2 6 0 0,0
18.05.2018 09:00:00 11,3 10,2 12,0 14,6 16,3 14,4 13 7 21 11 WNW 1017,8 6 0 0,0
18.05.2018 08:00:00 11,2 10,0 12,2 14,4 16,4 14,4 14 7 23 12 W 1017,1 8 0 0,0
18.05.2018 07:00:00 10,8 9,4 11,4 14,1 16,6 14,4 16 9 21 11 WNW 1016,7 7 0 0,0
18.05.2018 06:00:00 10,6 9,0 10,9 13,9 16,8 14,4 10 6 17 9 W 1016,7 10 0 0,0
18.05.2018 05:00:00 10,3 9,0 9,8 13,9 17,1 14,4 14 7 27 14 WNW 1016,3 9 0 0,0
18.05.2018 04:00:00 10,3 8,9 9,7 14,0 17,5 14,4 18 10 27 15 WNW 1016,3 10 0 0,0
18.05.2018 03:00:00 10,7 9,6 9,5 14,6 17,9 14,4 13 7 24 13 WNW 1016,1 10 0 0,0
18.05.2018 02:00:00 11,0 9,8 9,6 15,2 18,3 14,4 9 5 18 10 NW 1015,8 9 0 0,0
18.05.2018 01:00:00 12,4 10,5 10,9 15,9 18,7 14,4 15 8 24 13 NW 1015,6 11 0 0,0
18.05.2018 00:00:00 11,9 9,8 10,1 16,6 19,2 14,4 11 6 16 9 WNW 1015,5 14 0 0,0
17.05.2018 23:00:00 14,1 9,9 12,5 17,7 19,7 14,4 14 8 23 13 NNW 1015,2 16 0 0,0
17.05.2018 22:00:00 15,1 9,4 13,8 18,9 20,1 14,4 19 10 30 16 NNW 1014,8 18 0 0,0

tt = Température de l'air
td = dewpoint
tt 5cm = Température de l'air 5cm
tt -5cm = Température de l'air -5cm
tt -20cm = Température de l'air -20cm
tt -100cm = Température de l'air -100cm
ff = Vitesse du vent
fx = gusts
dd = Direction du vent
ppp = reduced air pressure
vv = visibility
sd = Ensoleillement
rr = Quantités de précipitations

stations d'obs. à proximité